KN4RPA Weather Reports


time (UTC)temp
F
wind
direction
speed
knots
gust
knots
rain 1hr
in
rain 24hr
in
rain mn
in
humidity
%
barometer
mb
20260510123043 57 153 0.0 0.0 0.00 0.00 0.00 89 1011.9
20260510121539 56 153 0.0 0.0 0.00 0.00 0.00 89 1011.7
20260510120036 54 153 0.0 0.0 0.00 0.00 0.00 88 1011.7
20260510114535 53 153 0.0 0.0 0.00 0.00 0.00 88 1011.5
20260510113030 53 153 0.0 0.0 0.00 0.00 0.00 87 1011.4
20260510111527 53 153 0.0 0.0 0.00 0.00 0.00 87 1011.3
20260510110024 52 153 0.0 0.0 0.00 0.00 0.00 86 1011.0
20260510104522 52 153 0.0 0.0 0.00 0.00 0.00 86 1010.9
20260510103019 53 153 0.0 0.0 0.00 0.00 0.00 85 1010.7
20260510101515 53 153 0.0 0.0 0.00 0.00 0.00 85 1010.6
20260510100013 53 153 0.0 0.0 0.00 0.00 0.00 85 1010.2
20260510094511 54 153 0.0 0.0 0.00 0.00 0.00 85 1010.2
20260510093009 55 153 0.0 0.0 0.00 0.00 0.00 85 1010.1
20260510091513 55 153 0.0 0.0 0.00 0.00 0.00 85 1009.9
20260510090008 55 153 0.0 0.0 0.00 0.00 0.00 85 1009.9
20260510084507 55 153 0.0 0.0 0.00 0.00 0.00 85 1009.9
20260510083007 55 153 0.0 0.0 0.00 0.00 0.00 84 1009.8
20260510081504 55 153 0.0 0.0 0.00 0.00 0.00 84 1009.7
20260510080003 55 153 0.0 0.0 0.00 0.00 0.00 83 1009.4
20260510074502 55 153 0.0 0.0 0.00 0.00 0.00 82 1009.6
20260510073116 56 153 0.0 0.0 0.00 0.00 0.00 82 1009.1
20260510071558 56 153 0.0 0.9 0.00 0.00 0.00 81 1009.1
20260510070100 56 153 0.0 0.0 0.00 0.00 0.00 80 1009.2
20260510064634 57 153 0.0 0.0 0.00 0.00 0.00 79 1009.0
20260510063054 57 153 0.0 0.0 0.00 0.00 0.00 79 1009.1
20260510061550 58 153 0.0 0.0 0.00 0.00 0.00 76 1009.1
20260510060049 59 153 0.0 0.0 0.00 0.00 0.00 75 1009.0
20260510054547 59 153 0.0 0.0 0.00 0.00 0.00 74 1009.0
20260510053047 60 153 0.0 0.0 0.00 0.00 0.00 73 1009.1
20260510051550 61 153 0.0 0.0 0.00 0.00 0.00 72 1008.9
20260510050039 62 153 0.0 0.0 0.00 0.00 0.00 71 1009.0
20260510044538 62 153 0.0 0.0 0.00 0.00 0.00 71 1008.9
20260510043039 62 153 0.0 0.0 0.00 0.00 0.00 71 1008.9
20260510041538 62 153 0.0 0.0 0.00 0.00 0.00 71 1008.9
20260510040044 62 153 0.0 0.0 0.00 0.00 0.00 70 1008.7
20260510034544 62 153 0.0 0.9 0.00 0.00 0.00 69 1008.6
20260510033038 62 153 0.0 0.0 0.00 0.00 0.00 68 1008.6
20260510031535 62 153 0.0 0.0 0.00 0.00 0.00 67 1008.5
20260510030035 62 153 0.0 0.0 0.00 0.00 0.00 65 1008.4
20260510024534 63 153 0.0 0.0 0.00 0.00 0.00 63 1008.2
20260510023034 63 153 0.0 0.0 0.00 0.00 0.00 62 1008.1
20260510021534 64 153 0.0 0.0 0.00 0.00 0.00 61 1008.1
20260510020033 64 153 0.0 0.0 0.00 0.00 0.00 60 1007.9
20260510014532 65 153 0.0 0.0 0.00 0.00 0.00 59 1007.6
20260510013034 66 153 0.0 0.0 0.00 0.00 0.00 58 1007.3
20260510011531 67 153 0.0 0.0 0.00 0.00 0.00 56 1007.1
20260510010030 68 153 0.0 0.0 0.00 0.00 0.00 55 1007.0
20260510004529 69 153 0.0 0.0 0.00 0.00 0.00 52 1006.9
20260510003030 70 153 0.0 0.0 0.00 0.00 0.00 51 1006.6
20260510001527 71 153 0.0 0.0 0.00 0.00 0.00 49 1006.7
20260510000027 72 153 0.0 0.0 0.00 0.00 0.00 48 1006.6
20260509234527 72 153 0.0 0.9 0.00 0.00 0.00 47 1006.5
20260509233026 73 153 0.0 0.9 0.00 0.00 0.00 45 1006.4
20260509231527 74 153 0.0 1.7 0.00 0.00 0.00 43 1006.5
20260509230025 74 138 0.0 2.6 0.00 0.00 0.00 42 1006.4
20260509224524 75 137 0.0 2.6 0.00 0.00 0.00 41 1006.3
20260509223024 75 136 0.0 3.5 0.00 0.00 0.00 41 1006.3
20260509221523 75 130 0.0 2.6 0.00 0.00 0.00 42 1006.4
20260509220037 75 130 0.0 1.7 0.00 0.00 0.00 41 1006.4
20260509214522 74 157 0.9 6.1 0.00 0.00 0.00 41 1006.3
20260509213022 74 157 0.0 7.0 0.00 0.00 0.00 42 1006.4
20260509211521 75 160 0.0 4.3 0.00 0.00 0.00 42 1006.3
20260509210021 75 160 0.0 2.6 0.00 0.00 0.00 40 1006.2
20260509204520 75 164 0.0 7.0 0.00 0.00 0.00 42 1006.2
20260509203029 75 165 0.0 2.6 0.00 0.00 0.00 44 1006.1
20260509201515 74 165 0.9 5.2 0.00 0.00 0.00 43 1006.4
20260509200013 74 153 0.0 5.2 0.00 0.00 0.00 45 1006.5
20260509194512 74 158 0.0 6.1 0.00 0.00 0.00 45 1006.7
20260509193010 74 161 0.0 6.1 0.00 0.00 0.00 47 1006.8
20260509191510 72 157 0.0 2.6 0.00 0.00 0.00 51 1007.3
20260509190007 72 157 0.9 6.1 0.00 0.00 0.00 50 1007.6
20260509184506 73 152 0.0 6.1 0.00 0.00 0.00 50 1007.7
20260509183002 70 140 0.0 4.3 0.00 0.00 0.00 54 1008.0
20260509181601 71 100 0.0 6.1 0.00 0.00 0.00 52 1008.0
20260509180058 72 83 0.0 4.3 0.00 0.00 0.00 52 1008.2
20260509174558 71 160 0.0 2.6 0.00 0.00 0.00 51 1008.2
20260509173101 70 163 0.0 5.2 0.00 0.00 0.00 52 1008.3
20260509171555 70 168 0.0 7.0 0.00 0.00 0.00 52 1008.5
20260509170053 69 158 0.9 7.0 0.00 0.00 0.00 54 1008.7
20260509164554 68 161 0.0 2.6 0.00 0.00 0.00 55 1009.0
20260509163056 68 161 0.0 4.3 0.00 0.00 0.00 53 1008.7
20260509161550 69 162 0.0 8.7 0.00 0.00 0.00 52 1008.9
20260509160050 69 110 0.9 8.7 0.00 0.00 0.00 51 1008.9
20260509154549 69 161 1.7 10.4 0.00 0.00 0.00 51 1009.0
20260509153053 70 167 2.6 5.2 0.00 0.00 0.00 50 1009.2
20260509151544 69 161 1.7 7.0 0.00 0.00 0.00 53 1009.3
20260509150043 67 163 0.0 8.7 0.00 0.00 0.00 54 1009.1
20260509144537 66 138 0.9 5.2 0.00 0.00 0.00 56 1009.7
20260509143036 65 164 0.9 5.2 0.00 0.00 0.00 58 1010.0
20260509141529 64 163 1.7 7.0 0.00 0.00 0.00 59 1009.8
20260509140030 63 159 0.0 5.2 0.00 0.00 0.00 61 1010.2
20260509134524 62 157 0.0 4.3 0.00 0.00 0.00 62 1010.2
20260509133021 61 157 0.0 5.2 0.00 0.00 0.00 64 1010.4
20260509131523 59 157 0.0 4.3 0.00 0.00 0.00 66 1010.5
20260509130014 59 154 0.0 6.1 0.00 0.00 0.00 68 1010.5
20260509124510 58 154 0.0 2.6 0.00 0.00 0.00 70 1010.5